Location: Unspecified
(35.7250°N, 0.0000°E)
Time: 08:49:12
(UTC+00:00)

Explorer 7 - Visible Passes

Search period start: 14 August 2020 00:00
Search period end: 24 August 2020 00:00
Orbit: 485 x 679 km, 50.3° (Epoch: 13 August)

Date Brightness Start Highest point End Pass type
(mag) Time Alt. Az. Time Alt. Az. Time Alt. Az.
14 Aug 10.0 22:24:57 10° NNW 22:24:58 10° NNW 22:24:58 10° NNW visible
16 Aug 9.5 19:11:56 10° NW 19:13:29 12° NNW 19:15:01 10° N visible
16 Aug 9.5 20:55:01 10° N 20:55:29 10° N 20:55:56 10° NNE visible
17 Aug 9.7 19:18:05 10° NNW 19:18:39 10° N 19:19:13 10° N visible
17 Aug 9.3 20:59:04 10° N 21:00:38 12° NNE 21:01:31 11° NNE visible
18 Aug 9.0 21:03:24 10° NNW 21:05:46 15° NNE 21:05:49 15° NNE visible
19 Aug 8.8 21:07:51 10° NNW 21:10:09 20° N 21:10:09 20° N visible
20 Aug 9.3 19:33:04 10° N 19:34:15 11° N 19:35:25 10° NNE visible
20 Aug 8.7 21:12:21 10° NNW 21:14:30 24° N 21:14:30 24° N visible
21 Aug 9.1 19:37:24 10° NNW 19:39:25 13° NNE 19:41:21 10° NE visible
21 Aug 8.7 21:16:56 10° NW 21:18:53 26° NNW 21:18:53 26° NNW visible
22 Aug 8.8 19:41:50 10° NNW 19:44:30 17° NNE 19:47:01 10° ENE visible
22 Aug 8.9 21:21:38 10° NW 21:23:19 24° NW 21:23:19 24° NW visible
23 Aug 8.3 19:46:19 10° NNW 19:49:32 23° NNE 19:51:30 16° ENE visible
23 Aug 9.2 21:26:28 10° WNW 21:27:48 20° WNW 21:27:48 20° WNW visible
